• In Deutschland
  • Länderverzeichnis
  • Für 7 Tage
  • Wassertemperatur
  • Satellitenkarten
  • Wetterkarte
  • Widgets
  • user-avatar
    Anmelden

    Stündliche Wetter Orange Walk

    Heute, 17 August, Donnerstag

    Zeit Temperatur Niederschläge Wind Luftdruck Luftfeuchtigkeit
    00:00 +27°C° 0 mm 2 m/S 759 mmHg 96%
    01:00 +26°C° 0,3 mm 1 m/S 758 mmHg 96%
    02:00 +26°C° 0,3 mm 1 m/S 758 mmHg 97%
    03:00 +26°C° 0,3 mm 1 m/S 758 mmHg 98%
    04:00 +26°C° 0,2 mm 1 m/S 758 mmHg 98%
    05:00 +26°C° 0,2 mm 1 m/S 758 mmHg 98%
    06:00 +26°C° 0 mm 1 m/S 759 mmHg 97%
    07:00 +28°C° 0,7 mm 1 m/S 759 mmHg 91%
    08:00 +29°C° 0,7 mm 2 m/S 759 mmHg 85%
    09:00 +31°C° 0,7 mm 2 m/S 759 mmHg 79%
    10:00 +31°C° 1,4 mm 2 m/S 759 mmHg 81%
    11:00 +31°C° 1,4 mm 2 m/S 759 mmHg 82%
    12:00 +31°C° 1,4 mm 2 m/S 759 mmHg 83%
    13:00 +31°C° 1,1 mm 2 m/S 758 mmHg 81%
    14:00 +32°C° 1,1 mm 2 m/S 758 mmHg 79%
    15:00 +32°C° 1,1 mm 2 m/S 758 mmHg 77%
    16:00 +31°C° 0 mm 2 m/S 758 mmHg 78%
    17:00 +31°C° 0 mm 2 m/S 758 mmHg 78%
    18:00 +30°C° 0 mm 2 m/S 758 mmHg 79%
    19:00 +29°C° 0 mm 2 m/S 758 mmHg 84%
    20:00 +28°C° 0 mm 2 m/S 758 mmHg 90%
    21:00 +27°C° 0 mm 1 m/S 759 mmHg 95%
    22:00 +27°C° 0 mm 1 m/S 759 mmHg 96%
    23:00 +26°C° 0 mm 1 m/S 758 mmHg 97%

    Morgen, 18 August, Freitag

    Zeit Temperatur Niederschläge Wind Luftdruck Luftfeuchtigkeit
    00:00 +26°C° 0 mm 1 m/S 758 mmHg 97%
    01:00 +26°C° 0 mm 1 m/S 758 mmHg 98%
    02:00 +26°C° 0 mm 1 m/S 758 mmHg 98%
    03:00 +26°C° 0 mm 1 m/S 757 mmHg 98%
    04:00 +26°C° 0 mm 1 m/S 757 mmHg 98%
    05:00 +26°C° 0 mm 1 m/S 757 mmHg 98%
    06:00 +26°C° 0 mm 1 m/S 758 mmHg 98%
    07:00 +28°C° 0,1 mm 1 m/S 758 mmHg 88%
    08:00 +30°C° 0,1 mm 1 m/S 758 mmHg 78%
    09:00 +32°C° 0,1 mm 2 m/S 758 mmHg 68%
    10:00 +35°C° 0 mm 2 m/S 758 mmHg 61%
    11:00 +36°C° 0 mm 2 m/S 758 mmHg 54%
    12:00 +37°C° 0 mm 2 m/S 758 mmHg 46%
    13:00 +37°C° 0 mm 2 m/S 757 mmHg 45%
    14:00 +37°C° 0 mm 3 m/S 757 mmHg 44%
    15:00 +37°C° 0 mm 3 m/S 756 mmHg 43%
    16:00 +36°C° 0 mm 2 m/S 756 mmHg 52%
    17:00 +34°C° 0 mm 2 m/S 756 mmHg 61%
    18:00 +31°C° 0 mm 2 m/S 756 mmHg 70%
    19:00 +30°C° 0 mm 2 m/S 757 mmHg 77%
    20:00 +28°C° 0 mm 1 m/S 757 mmHg 85%
    21:00 +27°C° 0 mm 1 m/S 758 mmHg 93%
    22:00 +27°C° 0 mm 1 m/S 758 mmHg 95%
    23:00 +26°C° 0 mm 1 m/S 758 mmHg 97%

    übermorgen, 19 August, Samstag

    Zeit Temperatur Niederschläge Wind Luftdruck Luftfeuchtigkeit
    00:00 +26°C° 0 mm 1 m/S 758 mmHg 98%
    01:00 +26°C° 0 mm 1 m/S 757 mmHg 98%
    02:00 +26°C° 0 mm 1 m/S 757 mmHg 99%
    03:00 +26°C° 0 mm 1 m/S 757 mmHg 99%
    04:00 +26°C° 0 mm 1 m/S 757 mmHg 99%
    05:00 +26°C° 0 mm 1 m/S 757 mmHg 99%
    06:00 +26°C° 0 mm 1 m/S 757 mmHg 99%
    07:00 +28°C° 0 mm 1 m/S 757 mmHg 89%
    08:00 +30°C° 0 mm 1 m/S 758 mmHg 79%
    09:00 +33°C° 0 mm 1 m/S 758 mmHg 69%
    10:00 +35°C° 0 mm 2 m/S 758 mmHg 61%
    11:00 +36°C° 0 mm 2 m/S 758 mmHg 53%
    12:00 +37°C° 0 mm 2 m/S 757 mmHg 46%
    13:00 +38°C° 0 mm 2 m/S 757 mmHg 44%
    14:00 +38°C° 0 mm 2 m/S 756 mmHg 43%
    15:00 +38°C° 0 mm 2 m/S 755 mmHg 41%
    16:00 +36°C° 0 mm 2 m/S 755 mmHg 49%
    17:00 +34°C° 0 mm 2 m/S 755 mmHg 58%
    18:00 +31°C° 0 mm 2 m/S 755 mmHg 66%
    19:00 +30°C° 0 mm 2 m/S 756 mmHg 74%
    20:00 +29°C° 0 mm 2 m/S 756 mmHg 82%
    21:00 +27°C° 0 mm 2 m/S 757 mmHg 89%
    22:00 +27°C° 0 mm 1 m/S 757 mmHg 92%
    23:00 +26°C° 0 mm 1 m/S 757 mmHg 94%

    20 August, Sonntag

    Zeit Temperatur Niederschläge Wind Luftdruck Luftfeuchtigkeit
    00:00 +26°C° 0 mm 1 m/S 757 mmHg 97%
    01:00 +26°C° 0,2 mm 1 m/S 757 mmHg 97%
    02:00 +26°C° 0,2 mm 1 m/S 756 mmHg 98%
    03:00 +26°C° 0,2 mm 1 m/S 756 mmHg 98%
    04:00 +26°C° 0,1 mm 1 m/S 756 mmHg 99%
    05:00 +25°C° 0,1 mm 1 m/S 756 mmHg 99%
    06:00 +25°C° 0,1 mm 1 m/S 757 mmHg 99%
    07:00 +28°C° 0,1 mm 1 m/S 757 mmHg 89%
    08:00 +30°C° 0,1 mm 1 m/S 757 mmHg 79%
    09:00 +32°C° 0,1 mm 1 m/S 758 mmHg 69%
    10:00 +34°C° 0,1 mm 1 m/S 757 mmHg 63%
    11:00 +35°C° 0,1 mm 1 m/S 757 mmHg 57%
    12:00 +37°C° 0,1 mm 2 m/S 757 mmHg 51%
    13:00 +37°C° 0,3 mm 2 m/S 756 mmHg 54%
    14:00 +36°C° 0,3 mm 2 m/S 755 mmHg 57%
    15:00 +36°C° 0,3 mm 2 m/S 755 mmHg 60%
    16:00 +34°C° 1,1 mm 2 m/S 755 mmHg 70%
    17:00 +31°C° 1,1 mm 2 m/S 755 mmHg 80%
    18:00 +29°C° 1,1 mm 2 m/S 755 mmHg 90%
    19:00 +28°C° 0,2 mm 2 m/S 756 mmHg 92%
    20:00 +28°C° 0,2 mm 2 m/S 757 mmHg 94%
    21:00 +27°C° 0,2 mm 1 m/S 757 mmHg 96%
    22:00 +27°C° 0,1 mm 1 m/S 757 mmHg 97%
    23:00 +27°C° 0,1 mm 1 m/S 757 mmHg 97%

    21 August, Montag

    Zeit Temperatur Niederschläge Wind Luftdruck Luftfeuchtigkeit
    00:00 +27°C° 0,1 mm 1 m/S 757 mmHg 98%
    01:00 +27°C° 0 mm 1 m/S 757 mmHg 98%
    02:00 +27°C° 0 mm 1 m/S 757 mmHg 98%
    03:00 +26°C° 0 mm 1 m/S 757 mmHg 98%
    04:00 +26°C° 0,1 mm 1 m/S 757 mmHg 98%
    05:00 +26°C° 0,1 mm 1 m/S 757 mmHg 98%
    06:00 +26°C° 0,1 mm 1 m/S 757 mmHg 98%
    07:00 +29°C° 0 mm 1 m/S 758 mmHg 87%
    08:00 +31°C° 0 mm 1 m/S 758 mmHg 76%
    09:00 +33°C° 0 mm 1 m/S 758 mmHg 65%
    10:00 +33°C° 0,8 mm 1 m/S 758 mmHg 66%
    11:00 +35°C° 0,8 mm 2 m/S 758 mmHg 66%
    12:00 +35°C° 0,8 mm 2 m/S 757 mmHg 67%
    13:00 +32°C° 2,7 mm 2 m/S 757 mmHg 75%
    14:00 +30°C° 2,7 mm 2 m/S 756 mmHg 83%
    15:00 +28°C° 2,7 mm 2 m/S 756 mmHg 92%
    16:00 +28°C° 0,5 mm 2 m/S 756 mmHg 92%
    17:00 +28°C° 0,5 mm 2 m/S 756 mmHg 93%
    18:00 +27°C° 0,5 mm 2 m/S 756 mmHg 94%
    19:00 +27°C° 0 mm 2 m/S 757 mmHg 95%
    20:00 +27°C° 0 mm 2 m/S 757 mmHg 96%
    21:00 +27°C° 0 mm 1 m/S 758 mmHg 97%
    22:00 +27°C° 1,6 mm 1 m/S 757 mmHg 98%
    23:00 +27°C° 1,6 mm 1 m/S 757 mmHg 98%

    22 August, Dienstag

    Zeit Temperatur Niederschläge Wind Luftdruck Luftfeuchtigkeit
    00:00 +26°C° 1,6 mm 1 m/S 757 mmHg 99%
    01:00 +26°C° 1 mm 1 m/S 757 mmHg 99%
    02:00 +26°C° 1 mm 1 m/S 756 mmHg 99%
    03:00 +26°C° 1 mm 1 m/S 756 mmHg 99%
    04:00 +26°C° 0,2 mm 1 m/S 756 mmHg 99%
    05:00 +26°C° 0,2 mm 1 m/S 757 mmHg 99%
    06:00 +27°C° 0,2 mm 1 m/S 757 mmHg 99%
    07:00 +28°C° 0,1 mm 1 m/S 757 mmHg 95%
    08:00 +29°C° 0,1 mm 1 m/S 758 mmHg 91%
    09:00 +30°C° 0,1 mm 1 m/S 758 mmHg 87%
    10:00 +32°C° 0,1 mm 2 m/S 758 mmHg 78%
    11:00 +34°C° 0,1 mm 2 m/S 758 mmHg 68%
    12:00 +36°C° 0,1 mm 2 m/S 757 mmHg 58%
    13:00 +36°C° 0,5 mm 2 m/S 757 mmHg 62%
    14:00 +35°C° 0,5 mm 3 m/S 756 mmHg 65%
    15:00 +35°C° 0,5 mm 3 m/S 756 mmHg 69%
    16:00 +33°C° 0,3 mm 3 m/S 756 mmHg 74%
    17:00 +31°C° 0,3 mm 2 m/S 756 mmHg 78%
    18:00 +30°C° 0,3 mm 2 m/S 757 mmHg 83%
    19:00 +29°C° 0 mm 2 m/S 757 mmHg 86%
    20:00 +28°C° 0 mm 2 m/S 757 mmHg 88%
    21:00 +28°C° 0 mm 2 m/S 758 mmHg 91%
    22:00 +27°C° 0 mm 2 m/S 758 mmHg 92%
    23:00 +27°C° 0 mm 2 m/S 757 mmHg 94%
    Mehr zeigen